• In Uzbekistan
  • List of Countries
  • For 7 days
  • Water Temperature
  • Satellite Maps
  • Weather Map
  • Weather Widgets
  • user-avatar
    Login

    Hourly Weather Eisenstadt

    Today, 23 July, Sunday

    Time Temperature Precipitation Wind Pressure Humidity
    00:00 +21°C° 1.3 mm 1 mps 722 mmHg 77%
    01:00 +21°C° 1.3 mm 1 mps 722 mmHg 81%
    02:00 +21°C° 1.3 mm 1 mps 722 mmHg 82%
    03:00 +20°C° 1.3 mm 1 mps 722 mmHg 83%
    04:00 +20°C° 1.3 mm 1 mps 722 mmHg 85%
    05:00 +21°C° 0.8 mm 1 mps 722 mmHg 82%
    06:00 +22°C° 0.8 mm 1 mps 722 mmHg 80%
    07:00 +23°C° 0.8 mm 1 mps 722 mmHg 78%
    08:00 +25°C° 0.6 mm 2 mps 722 mmHg 71%
    09:00 +26°C° 0.6 mm 2 mps 722 mmHg 64%
    10:00 +28°C° 0.6 mm 3 mps 723 mmHg 57%
    11:00 +29°C° 0.3 mm 3 mps 723 mmHg 53%
    12:00 +30°C° 0.3 mm 3 mps 722 mmHg 49%
    13:00 +30°C° 0.3 mm 3 mps 722 mmHg 46%
    14:00 +30°C° 0.5 mm 3 mps 722 mmHg 48%
    15:00 +29°C° 0.5 mm 3 mps 722 mmHg 50%
    16:00 +29°C° 0.5 mm 2 mps 722 mmHg 53%
    17:00 +27°C° 0.6 mm 3 mps 722 mmHg 58%
    18:00 +26°C° 0.6 mm 3 mps 722 mmHg 64%
    19:00 +24°C° 0.6 mm 3 mps 722 mmHg 69%
    20:00 +22°C° 1 mm 3 mps 722 mmHg 75%
    21:00 +20°C° 1 mm 2 mps 722 mmHg 81%
    22:00 +19°C° 1 mm 2 mps 722 mmHg 86%
    23:00 +19°C° 0.4 mm 2 mps 722 mmHg 87%

    Tomorrow, 24 July, Monday

    Time Temperature Precipitation Wind Pressure Humidity
    00:00 +18°C° 0.4 mm 2 mps 722 mmHg 88%
    01:00 +18°C° 0.4 mm 2 mps 721 mmHg 89%
    02:00 +18°C° 0 mm 2 mps 721 mmHg 90%
    03:00 +18°C° 0 mm 2 mps 721 mmHg 90%
    04:00 +17°C° 0 mm 2 mps 720 mmHg 90%
    05:00 +18°C° 0.1 mm 2 mps 720 mmHg 86%
    06:00 +19°C° 0.1 mm 2 mps 720 mmHg 83%
    07:00 +20°C° 0.1 mm 2 mps 719 mmHg 80%
    08:00 +20°C° 0.7 mm 2 mps 719 mmHg 77%
    09:00 +22°C° 0.7 mm 1 mps 719 mmHg 74%
    10:00 +23°C° 0.7 mm 1 mps 719 mmHg 72%
    11:00 +24°C° 0.3 mm 1 mps 718 mmHg 68%
    12:00 +25°C° 0.3 mm 1 mps 717 mmHg 64%
    13:00 +25°C° 0.3 mm 1 mps 717 mmHg 60%
    14:00 +26°C° 0.1 mm 2 mps 716 mmHg 60%
    15:00 +26°C° 0.1 mm 2 mps 716 mmHg 59%
    16:00 +27°C° 0.1 mm 2 mps 715 mmHg 58%
    17:00 +25°C° 1.2 mm 3 mps 715 mmHg 65%
    18:00 +22°C° 1.2 mm 4 mps 714 mmHg 72%
    19:00 +21°C° 1.2 mm 4 mps 714 mmHg 79%
    20:00 +19°C° 0.4 mm 5 mps 714 mmHg 80%
    21:00 +17°C° 0.4 mm 6 mps 715 mmHg 82%
    22:00 +15°C° 0.4 mm 6 mps 715 mmHg 83%
    23:00 +15°C° 0.1 mm 6 mps 715 mmHg 80%

    Day after tomorrow, 25 July, Tuesday

    Time Temperature Precipitation Wind Pressure Humidity
    00:00 +15°C° 0.1 mm 6 mps 715 mmHg 77%
    01:00 +15°C° 0.1 mm 6 mps 716 mmHg 74%
    02:00 +14°C° 0 mm 6 mps 715 mmHg 73%
    03:00 +14°C° 0 mm 6 mps 715 mmHg 72%
    04:00 +14°C° 0 mm 6 mps 715 mmHg 72%
    05:00 +14°C° 0 mm 6 mps 715 mmHg 70%
    06:00 +15°C° 0 mm 5 mps 715 mmHg 67%
    07:00 +15°C° 0 mm 5 mps 716 mmHg 65%
    08:00 +17°C° 0 mm 6 mps 716 mmHg 60%
    09:00 +19°C° 0 mm 6 mps 716 mmHg 54%
    10:00 +20°C° 0 mm 6 mps 716 mmHg 49%
    11:00 +21°C° 0 mm 6 mps 715 mmHg 47%
    12:00 +21°C° 0 mm 5 mps 715 mmHg 45%
    13:00 +22°C° 0 mm 5 mps 715 mmHg 43%
    14:00 +22°C° 0 mm 5 mps 715 mmHg 43%
    15:00 +22°C° 0 mm 5 mps 715 mmHg 43%
    16:00 +22°C° 0 mm 5 mps 715 mmHg 44%
    17:00 +21°C° 0 mm 4 mps 715 mmHg 49%
    18:00 +20°C° 0 mm 3 mps 715 mmHg 55%
    19:00 +19°C° 0 mm 3 mps 715 mmHg 60%
    20:00 +17°C° 0 mm 3 mps 715 mmHg 64%
    21:00 +16°C° 0 mm 3 mps 715 mmHg 69%
    22:00 +14°C° 0 mm 3 mps 715 mmHg 73%
    23:00 +14°C° 0 mm 3 mps 715 mmHg 74%

    26 July, Wednesday

    Time Temperature Precipitation Wind Pressure Humidity
    00:00 +13°C° 0 mm 3 mps 715 mmHg 76%
    01:00 +13°C° 0 mm 3 mps 715 mmHg 77%
    02:00 +13°C° 0 mm 3 mps 715 mmHg 78%
    03:00 +12°C° 0 mm 3 mps 715 mmHg 79%
    04:00 +12°C° 0 mm 3 mps 715 mmHg 80%
    05:00 +13°C° 0 mm 3 mps 715 mmHg 75%
    06:00 +14°C° 0 mm 4 mps 715 mmHg 70%
    07:00 +17°C° 0 mm 4 mps 716 mmHg 65%
    08:00 +18°C° 0 mm 4 mps 716 mmHg 59%
    09:00 +20°C° 0 mm 4 mps 716 mmHg 54%
    10:00 +21°C° 0 mm 4 mps 716 mmHg 48%
    11:00 +22°C° 0 mm 4 mps 716 mmHg 45%
    12:00 +23°C° 0 mm 4 mps 716 mmHg 43%
    13:00 +25°C° 0 mm 4 mps 716 mmHg 41%
    14:00 +23°C° 0 mm 4 mps 716 mmHg 43%
    15:00 +23°C° 0 mm 4 mps 716 mmHg 45%
    16:00 +23°C° 0 mm 4 mps 716 mmHg 47%
    17:00 +21°C° 0 mm 4 mps 717 mmHg 53%
    18:00 +20°C° 0 mm 4 mps 717 mmHg 58%
    19:00 +19°C° 0 mm 4 mps 717 mmHg 63%
    20:00 +18°C° 0 mm 4 mps 718 mmHg 67%
    21:00 +17°C° 0 mm 4 mps 718 mmHg 71%
    22:00 +14°C° 0 mm 3 mps 719 mmHg 76%
    23:00 +14°C° 0 mm 3 mps 719 mmHg 78%

    27 July, Thursday

    Time Temperature Precipitation Wind Pressure Humidity
    00:00 +14°C° 0 mm 3 mps 719 mmHg 80%
    01:00 +13°C° 0 mm 3 mps 719 mmHg 82%
    02:00 +14°C° 0 mm 3 mps 719 mmHg 81%
    03:00 +14°C° 0 mm 3 mps 720 mmHg 80%
    04:00 +14°C° 0 mm 3 mps 720 mmHg 79%
    05:00 +16°C° 0 mm 3 mps 720 mmHg 76%
    06:00 +15°C° 0 mm 4 mps 720 mmHg 74%
    07:00 +17°C° 0 mm 4 mps 721 mmHg 71%
    08:00 +17°C° 0 mm 4 mps 721 mmHg 72%
    09:00 +18°C° 0 mm 4 mps 721 mmHg 72%
    10:00 +18°C° 0 mm 4 mps 722 mmHg 72%
    11:00 +19°C° 0 mm 4 mps 722 mmHg 67%
    12:00 +19°C° 0 mm 4 mps 722 mmHg 62%
    13:00 +20°C° 0 mm 4 mps 722 mmHg 57%
    14:00 +21°C° 0 mm 4 mps 721 mmHg 53%
    15:00 +23°C° 0 mm 4 mps 721 mmHg 48%
    16:00 +25°C° 0 mm 4 mps 721 mmHg 44%
    17:00 +24°C° 0 mm 3 mps 721 mmHg 50%
    18:00 +21°C° 0 mm 3 mps 721 mmHg 55%
    19:00 +20°C° 0 mm 2 mps 721 mmHg 60%
    20:00 +19°C° 0 mm 2 mps 722 mmHg 65%
    21:00 +18°C° 0 mm 2 mps 722 mmHg 70%
    22:00 +16°C° 0 mm 2 mps 722 mmHg 74%
    23:00 +16°C° 0 mm 2 mps 722 mmHg 76%

    28 July, Friday

    Time Temperature Precipitation Wind Pressure Humidity
    00:00 +16°C° 0 mm 2 mps 722 mmHg 78%
    01:00 +15°C° 0 mm 2 mps 722 mmHg 80%
    02:00 +15°C° 0 mm 2 mps 722 mmHg 82%
    03:00 +15°C° 0 mm 2 mps 722 mmHg 83%
    04:00 +14°C° 0 mm 1 mps 722 mmHg 84%
    05:00 +16°C° 0 mm 1 mps 723 mmHg 78%
    06:00 +19°C° 0 mm 1 mps 723 mmHg 72%
    07:00 +21°C° 0 mm 1 mps 723 mmHg 66%
    08:00 +23°C° 0 mm 1 mps 723 mmHg 59%
    09:00 +25°C° 0 mm 1 mps 723 mmHg 52%
    10:00 +27°C° 0 mm 1 mps 724 mmHg 45%
    11:00 +28°C° 0 mm 1 mps 723 mmHg 43%
    12:00 +29°C° 0 mm 1 mps 723 mmHg 40%
    13:00 +29°C° 0 mm 1 mps 723 mmHg 38%
    14:00 +30°C° 0 mm 1 mps 723 mmHg 37%
    15:00 +30°C° 0 mm 1 mps 723 mmHg 37%
    16:00 +30°C° 0 mm 1 mps 722 mmHg 36%
    17:00 +28°C° 0 mm 1 mps 722 mmHg 43%
    18:00 +27°C° 0 mm 1 mps 722 mmHg 49%
    19:00 +25°C° 0 mm 1 mps 722 mmHg 55%
    20:00 +24°C° 0 mm 1 mps 723 mmHg 58%
    21:00 +23°C° 0 mm 1 mps 723 mmHg 61%
    22:00 +21°C° 0 mm 1 mps 723 mmHg 63%
    23:00 +21°C° 0 mm 1 mps 724 mmHg 65%
    Show more